Year,Month,Day,Hour,Minute,Value (Times are PST for temperature in C)
2018,04,19,00,00,6.40
2018,04,19,00,01,6.40
2018,04,19,00,02,6.40
2018,04,19,00,03,6.40
2018,04,19,00,04,6.40
2018,04,19,00,05,6.40
2018,04,19,00,06,6.50
2018,04,19,00,07,6.50
2018,04,19,00,08,6.50
2018,04,19,00,09,6.50
2018,04,19,00,10,6.60
2018,04,19,00,11,6.60
2018,04,19,00,12,6.60
2018,04,19,00,13,6.60
2018,04,19,00,14,6.60
2018,04,19,00,15,6.60
2018,04,19,00,16,6.60
2018,04,19,00,17,6.60
2018,04,19,00,18,6.60
2018,04,19,00,19,6.60
2018,04,19,00,20,6.60
2018,04,19,00,21,6.60
2018,04,19,00,22,6.60
2018,04,19,00,23,6.60
2018,04,19,00,24,6.50
2018,04,19,00,25,6.50
2018,04,19,00,26,6.40
2018,04,19,00,27,6.40
2018,04,19,00,28,6.40
2018,04,19,00,29,6.30
2018,04,19,00,30,6.30
2018,04,19,00,31,6.20
2018,04,19,00,32,6.20
2018,04,19,00,33,6.20
2018,04,19,00,34,6.10
2018,04,19,00,35,6.10
2018,04,19,00,36,6.10
2018,04,19,00,37,6.00
2018,04,19,00,38,6.00
2018,04,19,00,39,5.90
2018,04,19,00,40,5.90
2018,04,19,00,41,5.80
2018,04,19,00,42,5.80
2018,04,19,00,43,5.80
2018,04,19,00,44,5.80
2018,04,19,00,45,5.70
2018,04,19,00,46,5.70
2018,04,19,00,47,5.70
2018,04,19,00,48,5.60
2018,04,19,00,49,5.60
2018,04,19,00,50,5.60
2018,04,19,00,51,5.60
2018,04,19,00,52,5.60
2018,04,19,00,53,5.50
2018,04,19,00,54,5.50
2018,04,19,00,55,5.50
2018,04,19,00,56,5.40
2018,04,19,00,57,5.40
2018,04,19,00,58,5.40
2018,04,19,00,59,5.40
2018,04,19,01,00,5.40
2018,04,19,01,01,5.30
2018,04,19,01,02,5.30
2018,04,19,01,03,5.30
2018,04,19,01,04,5.30
2018,04,19,01,05,5.30
2018,04,19,01,06,5.20
2018,04,19,01,07,5.20
2018,04,19,01,08,5.20
2018,04,19,01,09,5.20
2018,04,19,01,10,5.20
2018,04,19,01,11,5.20
2018,04,19,01,12,5.20
2018,04,19,01,13,5.20
2018,04,19,01,14,5.20
2018,04,19,01,15,5.20
2018,04,19,01,16,5.10
2018,04,19,01,17,5.10
2018,04,19,01,18,5.10
2018,04,19,01,19,5.10
2018,04,19,01,20,5.10
2018,04,19,01,21,5.10
2018,04,19,01,22,5.10
2018,04,19,01,23,5.10
2018,04,19,01,24,5.00
2018,04,19,01,25,5.00
2018,04,19,01,26,5.00
2018,04,19,01,27,5.00
2018,04,19,01,28,5.00
2018,04,19,01,29,5.00
2018,04,19,01,30,4.90
2018,04,19,01,31,4.90
2018,04,19,01,32,4.90
2018,04,19,01,33,4.90
2018,04,19,01,34,4.90
2018,04,19,01,35,4.90
2018,04,19,01,36,4.90
2018,04,19,01,37,4.90
2018,04,19,01,38,4.90
2018,04,19,01,39,4.90
2018,04,19,01,40,4.80
2018,04,19,01,41,4.80
2018,04,19,01,42,4.80
2018,04,19,01,43,4.80
2018,04,19,01,44,4.80
2018,04,19,01,45,4.80
2018,04,19,01,46,4.90
2018,04,19,01,47,4.90
2018,04,19,01,48,4.90
2018,04,19,01,49,4.90
2018,04,19,01,50,4.90
2018,04,19,01,51,4.90
2018,04,19,01,52,4.90
2018,04,19,01,53,4.90
2018,04,19,01,54,4.90
2018,04,19,01,55,4.90
2018,04,19,01,56,4.90
2018,04,19,01,57,4.90
2018,04,19,01,58,4.90
2018,04,19,01,59,4.80
2018,04,19,02,00,4.80
2018,04,19,02,01,4.80
2018,04,19,02,02,4.80
2018,04,19,02,03,4.80
2018,04,19,02,04,4.80
2018,04,19,02,05,4.80
2018,04,19,02,06,4.80
2018,04,19,02,07,4.80
2018,04,19,02,08,4.80
2018,04,19,02,09,4.70
2018,04,19,02,10,4.70
2018,04,19,02,11,4.70
2018,04,19,02,12,4.70
2018,04,19,02,13,4.70
2018,04,19,02,14,4.70
2018,04,19,02,15,4.70
2018,04,19,02,16,4.70
2018,04,19,02,17,4.70
2018,04,19,02,18,4.70
2018,04,19,02,19,4.70
2018,04,19,02,20,4.60
2018,04,19,02,21,4.60
2018,04,19,02,22,4.60
2018,04,19,02,23,4.60
2018,04,19,02,24,4.60
2018,04,19,02,25,4.60
2018,04,19,02,26,4.60
2018,04,19,02,27,4.60
2018,04,19,02,28,4.50
2018,04,19,02,29,4.50
2018,04,19,02,30,4.50
2018,04,19,02,31,4.50
2018,04,19,02,32,4.40
2018,04,19,02,33,4.40
2018,04,19,02,34,4.40
2018,04,19,02,35,4.40
2018,04,19,02,36,4.40
2018,04,19,02,37,4.40
2018,04,19,02,38,4.40
2018,04,19,02,39,4.40
2018,04,19,02,40,4.40
2018,04,19,02,41,4.40
2018,04,19,02,42,4.40
2018,04,19,02,43,4.30
2018,04,19,02,44,4.30
2018,04,19,02,45,4.30
2018,04,19,02,46,4.30
2018,04,19,02,47,4.30
2018,04,19,02,48,4.30
2018,04,19,02,49,4.30
2018,04,19,02,50,4.30
2018,04,19,02,51,4.30
2018,04,19,02,52,4.30
2018,04,19,02,53,4.30
2018,04,19,02,54,4.30
2018,04,19,02,55,4.30
2018,04,19,02,56,4.30
2018,04,19,02,57,4.20
2018,04,19,02,58,4.20
2018,04,19,02,59,4.20
2018,04,19,03,00,4.20
2018,04,19,03,01,4.20
2018,04,19,03,02,4.20
2018,04,19,03,03,4.20
2018,04,19,03,04,4.10
2018,04,19,03,05,4.10
2018,04,19,03,06,4.10
2018,04,19,03,07,4.10
2018,04,19,03,08,4.10
2018,04,19,03,09,4.10
2018,04,19,03,10,4.00
2018,04,19,03,11,4.00
2018,04,19,03,12,4.00
2018,04,19,03,13,4.00
2018,04,19,03,14,4.00
2018,04,19,03,15,3.90
2018,04,19,03,16,3.90
2018,04,19,03,17,3.90
2018,04,19,03,18,3.90
2018,04,19,03,19,3.90
2018,04,19,03,20,3.90
2018,04,19,03,21,3.80
2018,04,19,03,22,3.80
2018,04,19,03,23,3.80
2018,04,19,03,24,3.80
2018,04,19,03,25,3.80
2018,04,19,03,26,3.80
2018,04,19,03,27,3.70
2018,04,19,03,28,3.70
2018,04,19,03,29,3.70
2018,04,19,03,30,3.70
2018,04,19,03,31,3.70
2018,04,19,03,32,3.70
2018,04,19,03,33,3.70
2018,04,19,03,34,3.70
2018,04,19,03,35,3.60
2018,04,19,03,36,3.60
2018,04,19,03,37,3.60
2018,04,19,03,38,3.60
2018,04,19,03,39,3.60
2018,04,19,03,40,3.60
2018,04,19,03,41,3.60
2018,04,19,03,42,3.60
2018,04,19,03,43,3.60
2018,04,19,03,44,3.60
2018,04,19,03,45,3.60
2018,04,19,03,46,3.60
2018,04,19,03,47,3.60
2018,04,19,03,48,3.60
2018,04,19,03,49,3.60
2018,04,19,03,50,3.60
2018,04,19,03,51,3.60
2018,04,19,03,52,3.50
2018,04,19,03,53,3.50
2018,04,19,03,54,3.50
2018,04,19,03,55,3.40
2018,04,19,03,56,3.40
2018,04,19,03,57,3.40
2018,04,19,03,58,3.40
2018,04,19,03,59,3.40
2018,04,19,04,00,3.40
2018,04,19,04,01,3.40
2018,04,19,04,02,3.30
2018,04,19,04,03,3.30
2018,04,19,04,04,3.30
2018,04,19,04,05,3.30
2018,04,19,04,06,3.30
2018,04,19,04,07,3.30
2018,04,19,04,08,3.30
2018,04,19,04,09,3.30
2018,04,19,04,10,3.30
2018,04,19,04,11,3.30
2018,04,19,04,12,3.30
2018,04,19,04,13,3.30
2018,04,19,04,14,3.20
2018,04,19,04,15,3.20
2018,04,19,04,16,3.20
2018,04,19,04,17,3.20
2018,04,19,04,18,3.20
2018,04,19,04,19,3.20
2018,04,19,04,20,3.20
2018,04,19,04,21,3.20
2018,04,19,04,22,3.20
2018,04,19,04,23,3.20
2018,04,19,04,24,3.20
2018,04,19,04,25,3.10
2018,04,19,04,26,3.10
2018,04,19,04,27,3.10
2018,04,19,04,28,3.10
2018,04,19,04,29,3.10
2018,04,19,04,30,3.10
2018,04,19,04,31,3.10
2018,04,19,04,32,3.10
2018,04,19,04,33,3.10
2018,04,19,04,34,3.10
2018,04,19,04,35,3.10
2018,04,19,04,36,3.10
2018,04,19,04,37,3.10
2018,04,19,04,38,3.10
2018,04,19,04,39,3.10
2018,04,19,04,40,3.10
2018,04,19,04,41,3.10
2018,04,19,04,42,3.10
2018,04,19,04,43,3.10
2018,04,19,04,44,3.10
2018,04,19,04,45,3.10
2018,04,19,04,46,3.10
2018,04,19,04,47,3.10
2018,04,19,04,48,3.10
2018,04,19,04,49,3.10
2018,04,19,04,50,3.10
2018,04,19,04,51,3.10
2018,04,19,04,52,3.10
2018,04,19,04,53,3.20
2018,04,19,04,54,3.20
2018,04,19,04,55,3.20
2018,04,19,04,56,3.20
2018,04,19,04,57,3.20
2018,04,19,04,58,3.20
2018,04,19,04,59,3.20
2018,04,19,05,00,3.20
2018,04,19,05,01,3.20
2018,04,19,05,02,3.20
2018,04,19,05,03,3.20
2018,04,19,05,04,3.20
2018,04,19,05,05,3.10
2018,04,19,05,06,3.10
2018,04,19,05,07,3.10
2018,04,19,05,08,3.10
2018,04,19,05,09,3.10
2018,04,19,05,10,3.10
2018,04,19,05,11,3.10
2018,04,19,05,12,3.00
2018,04,19,05,13,3.10
2018,04,19,05,14,3.10
2018,04,19,05,15,3.10
2018,04,19,05,16,3.10
2018,04,19,05,17,3.10
2018,04,19,05,18,3.00
2018,04,19,05,19,3.00
2018,04,19,05,20,3.00
2018,04,19,05,21,3.00
2018,04,19,05,22,3.00
2018,04,19,05,23,2.90
2018,04,19,05,24,2.90
2018,04,19,05,25,2.90
2018,04,19,05,26,2.90
2018,04,19,05,27,2.90
2018,04,19,05,28,2.90
2018,04,19,05,29,2.90
2018,04,19,05,30,2.90
2018,04,19,05,31,2.90
2018,04,19,05,32,2.90
2018,04,19,05,33,2.90
2018,04,19,05,34,2.90
2018,04,19,05,35,2.90
2018,04,19,05,36,2.90
2018,04,19,05,37,2.90
2018,04,19,05,38,2.80
2018,04,19,05,39,2.80
2018,04,19,05,40,2.80
2018,04,19,05,41,2.80
2018,04,19,05,42,2.80
2018,04,19,05,43,2.80
2018,04,19,05,44,2.80
2018,04,19,05,45,2.80
2018,04,19,05,46,2.80
2018,04,19,05,47,2.80
2018,04,19,05,48,2.80
2018,04,19,05,49,2.80
2018,04,19,05,50,2.80
2018,04,19,05,51,2.80
2018,04,19,05,52,2.80
2018,04,19,05,53,2.80
2018,04,19,05,54,2.80
2018,04,19,05,55,2.80
2018,04,19,05,56,2.80
2018,04,19,05,57,2.80
2018,04,19,05,58,2.80
2018,04,19,05,59,2.80
2018,04,19,06,00,2.80
2018,04,19,06,01,2.80
2018,04,19,06,02,2.70
2018,04,19,06,03,2.70
2018,04,19,06,04,2.70
2018,04,19,06,05,2.70
2018,04,19,06,06,2.70
2018,04,19,06,07,2.70
2018,04,19,06,08,2.70
2018,04,19,06,09,2.70
2018,04,19,06,10,2.70
2018,04,19,06,11,2.70
2018,04,19,06,12,2.70
2018,04,19,06,13,2.70
2018,04,19,06,14,2.70
2018,04,19,06,15,2.70
2018,04,19,06,16,2.70
2018,04,19,06,17,2.70
2018,04,19,06,18,2.70
2018,04,19,06,19,2.70
2018,04,19,06,20,2.60
2018,04,19,06,21,2.70
2018,04,19,06,22,2.70
2018,04,19,06,23,2.70
2018,04,19,06,24,2.70
2018,04,19,06,25,2.70
2018,04,19,06,26,2.70
2018,04,19,06,27,2.70
2018,04,19,06,28,2.70
2018,04,19,06,29,2.70
2018,04,19,06,30,2.70
2018,04,19,06,31,2.70
2018,04,19,06,32,2.70
2018,04,19,06,33,2.70
2018,04,19,06,34,2.70
2018,04,19,06,35,2.70
2018,04,19,06,36,2.70
2018,04,19,06,37,2.70
2018,04,19,06,38,2.70
2018,04,19,06,39,2.70
2018,04,19,06,40,2.70
2018,04,19,06,41,2.80
2018,04,19,06,42,2.80
2018,04,19,06,43,2.80
2018,04,19,06,44,2.80
2018,04,19,06,45,2.80
2018,04,19,06,46,2.80
2018,04,19,06,47,2.80
2018,04,19,06,48,2.80
2018,04,19,06,49,2.80
2018,04,19,06,50,2.80
2018,04,19,06,51,2.80
2018,04,19,06,52,2.90
2018,04,19,06,53,2.90
2018,04,19,06,54,2.90
2018,04,19,06,55,2.90
2018,04,19,06,56,3.00
2018,04,19,06,57,3.00
2018,04,19,06,58,3.00
2018,04,19,06,59,3.10
2018,04,19,07,00,3.10
2018,04,19,07,01,3.10
2018,04,19,07,02,3.10
2018,04,19,07,03,3.10
2018,04,19,07,04,3.10
2018,04,19,07,05,3.20
2018,04,19,07,06,3.20
2018,04,19,07,07,3.20
2018,04,19,07,08,3.30
2018,04,19,07,09,3.30
2018,04,19,07,10,3.30
2018,04,19,07,11,3.30
2018,04,19,07,12,3.30
2018,04,19,07,13,3.30
2018,04,19,07,14,3.40
2018,04,19,07,15,3.40
2018,04,19,07,16,3.40
2018,04,19,07,17,3.40
2018,04,19,07,18,3.50
2018,04,19,07,19,3.50
2018,04,19,07,20,3.50
2018,04,19,07,21,3.60
2018,04,19,07,22,3.60
2018,04,19,07,23,3.60
2018,04,19,07,24,3.70
2018,04,19,07,25,3.70
2018,04,19,07,26,3.80
2018,04,19,07,27,3.80
2018,04,19,07,28,3.80
2018,04,19,07,29,3.90
2018,04,19,07,30,3.90
2018,04,19,07,31,4.00
2018,04,19,07,32,4.00
2018,04,19,07,33,4.00
2018,04,19,07,34,4.10
2018,04,19,07,35,4.10
2018,04,19,07,36,4.20
2018,04,19,07,37,4.20
2018,04,19,07,38,4.30
2018,04,19,07,39,4.30
2018,04,19,07,40,4.30
2018,04,19,07,41,4.40
2018,04,19,07,42,4.40
2018,04,19,07,43,4.40
2018,04,19,07,44,4.50
2018,04,19,07,45,4.60
2018,04,19,07,46,4.60
2018,04,19,07,47,4.70
2018,04,19,07,48,4.70
2018,04,19,07,49,4.70
2018,04,19,07,50,4.80
2018,04,19,07,51,4.80
2018,04,19,07,52,4.80
2018,04,19,07,53,4.90
2018,04,19,07,54,4.90
2018,04,19,07,55,4.90
2018,04,19,07,56,4.90
2018,04,19,07,57,5.00
2018,04,19,07,58,5.00
2018,04,19,07,59,5.00
2018,04,19,08,00,5.10
2018,04,19,08,01,5.10
2018,04,19,08,02,5.10
2018,04,19,08,03,5.10
2018,04,19,08,04,5.20
2018,04,19,08,05,5.20
2018,04,19,08,06,5.20
2018,04,19,08,07,5.30
2018,04,19,08,08,5.30
2018,04,19,08,09,5.30
2018,04,19,08,10,5.40
2018,04,19,08,11,5.40
2018,04,19,08,12,5.50
2018,04,19,08,13,5.50
2018,04,19,08,14,5.50
2018,04,19,08,15,5.60
2018,04,19,08,16,5.60
2018,04,19,08,17,5.60
2018,04,19,08,18,5.70
2018,04,19,08,19,5.70
2018,04,19,08,20,5.70
2018,04,19,08,21,5.70
2018,04,19,08,22,5.80
2018,04,19,08,23,5.90
2018,04,19,08,24,5.90
2018,04,19,08,25,6.00
2018,04,19,08,26,6.00
2018,04,19,08,27,6.10
2018,04,19,08,28,6.10
2018,04,19,08,29,6.20
2018,04,19,08,30,6.20
2018,04,19,08,31,6.30
2018,04,19,08,32,6.30
2018,04,19,08,33,6.30
2018,04,19,08,34,6.40
2018,04,19,08,35,6.40
2018,04,19,08,36,6.50
2018,04,19,08,37,6.50
2018,04,19,08,38,6.60
2018,04,19,08,39,6.60
2018,04,19,08,40,6.60
2018,04,19,08,41,6.70
2018,04,19,08,42,6.70
2018,04,19,08,43,6.70
2018,04,19,08,44,6.70
2018,04,19,08,45,6.80
2018,04,19,08,46,6.80
2018,04,19,08,47,6.80
2018,04,19,08,48,6.80
2018,04,19,08,49,6.80
2018,04,19,08,50,6.80
2018,04,19,08,51,6.90
2018,04,19,08,52,6.90
2018,04,19,08,53,6.90
2018,04,19,08,54,6.90
2018,04,19,08,55,7.00
2018,04,19,08,56,7.00
2018,04,19,08,57,7.10
2018,04,19,08,58,7.10
2018,04,19,08,59,7.20
2018,04,19,09,00,7.20
2018,04,19,09,01,7.30
2018,04,19,09,02,7.30
2018,04,19,09,03,7.30
2018,04,19,09,04,7.40
2018,04,19,09,05,7.40
2018,04,19,09,06,7.40
2018,04,19,09,07,7.40
2018,04,19,09,08,7.40
2018,04,19,09,09,7.50
2018,04,19,09,10,7.50
2018,04,19,09,11,7.50
2018,04,19,09,12,7.50
2018,04,19,09,13,7.60
2018,04,19,09,14,7.60
2018,04,19,09,15,7.60
2018,04,19,09,16,7.60
2018,04,19,09,17,7.70
2018,04,19,09,18,7.70
2018,04,19,09,19,7.70
2018,04,19,09,20,7.70
2018,04,19,09,21,7.80
2018,04,19,09,22,7.80
2018,04,19,09,23,7.90
2018,04,19,09,24,7.90
2018,04,19,09,25,7.90
2018,04,19,09,26,7.90
2018,04,19,09,27,8.00
2018,04,19,09,28,8.00
2018,04,19,09,29,8.00
2018,04,19,09,30,8.10
2018,04,19,09,31,8.10
2018,04,19,09,32,8.10
2018,04,19,09,33,8.10
2018,04,19,09,34,8.20
2018,04,19,09,35,8.20
2018,04,19,09,36,8.20
2018,04,19,09,37,8.20
2018,04,19,09,38,8.20
2018,04,19,09,39,8.20
2018,04,19,09,40,8.30
2018,04,19,09,41,8.30
2018,04,19,09,42,8.30
2018,04,19,09,43,8.30
2018,04,19,09,44,8.40
2018,04,19,09,45,8.40
2018,04,19,09,46,8.50
2018,04,19,09,47,8.50
2018,04,19,09,48,8.60
2018,04,19,09,49,8.70
2018,04,19,09,50,8.70
2018,04,19,09,51,8.80
2018,04,19,09,52,8.80
2018,04,19,09,53,8.80
2018,04,19,09,54,8.80
2018,04,19,09,55,8.90
2018,04,19,09,56,8.90
2018,04,19,09,57,8.90
2018,04,19,09,58,9.00
2018,04,19,09,59,9.00
2018,04,19,10,00,9.10
2018,04,19,10,01,9.10
2018,04,19,10,02,9.20
2018,04,19,10,03,9.20
2018,04,19,10,04,9.30
2018,04,19,10,05,9.30
2018,04,19,10,06,9.30
2018,04,19,10,07,9.40
2018,04,19,10,08,9.40
2018,04,19,10,09,9.40
2018,04,19,10,10,9.40
2018,04,19,10,11,9.40
2018,04,19,10,12,9.50
2018,04,19,10,13,9.60
2018,04,19,10,14,9.60
2018,04,19,10,15,9.60
2018,04,19,10,16,9.70
2018,04,19,10,17,9.70
2018,04,19,10,18,9.70
2018,04,19,10,19,9.70
2018,04,19,10,20,9.70
2018,04,19,10,21,9.70
2018,04,19,10,22,9.70
2018,04,19,10,23,9.70
2018,04,19,10,24,9.70
2018,04,19,10,25,9.70
2018,04,19,10,26,9.80
2018,04,19,10,27,9.80
2018,04,19,10,28,9.80
2018,04,19,10,29,9.80
2018,04,19,10,30,9.80
2018,04,19,10,31,9.80
2018,04,19,10,32,9.90
2018,04,19,10,33,9.90
2018,04,19,10,34,10.00
2018,04,19,10,35,10.10
2018,04,19,10,36,10.10
2018,04,19,10,37,10.20
2018,04,19,10,38,10.20
2018,04,19,10,39,10.20
2018,04,19,10,40,10.20
2018,04,19,10,41,10.20
2018,04,19,10,42,10.20
2018,04,19,10,43,10.20
2018,04,19,10,44,10.20
2018,04,19,10,45,10.30
2018,04,19,10,46,10.30
2018,04,19,10,47,10.30
2018,04,19,10,48,10.40
2018,04,19,10,49,10.40
2018,04,19,10,50,10.40
2018,04,19,10,51,10.40
2018,04,19,10,52,10.40
2018,04,19,10,53,10.40
2018,04,19,10,54,10.40
2018,04,19,10,55,10.40
2018,04,19,10,56,10.40
2018,04,19,10,57,10.40
2018,04,19,10,58,10.40
2018,04,19,10,59,10.50
2018,04,19,11,00,10.50
2018,04,19,11,01,10.50
2018,04,19,11,02,10.60
2018,04,19,11,03,10.60
2018,04,19,11,04,10.70
2018,04,19,11,05,10.70
2018,04,19,11,06,10.70
2018,04,19,11,07,10.70
2018,04,19,11,08,10.80
2018,04,19,11,09,10.80
2018,04,19,11,10,10.90
2018,04,19,11,11,10.90
2018,04,19,11,12,10.90
2018,04,19,11,13,11.00
2018,04,19,11,14,11.00
2018,04,19,11,15,11.10
2018,04,19,11,16,11.10
2018,04,19,11,17,11.10
2018,04,19,11,18,11.10
2018,04,19,11,19,11.10
2018,04,19,11,20,11.10
2018,04,19,11,21,11.10
2018,04,19,11,22,11.20
2018,04,19,11,23,11.20
2018,04,19,11,24,11.20
2018,04,19,11,25,11.20
2018,04,19,11,26,11.20
2018,04,19,11,27,11.20
2018,04,19,11,28,11.20
2018,04,19,11,29,11.20
2018,04,19,11,30,11.20
2018,04,19,11,31,11.20
2018,04,19,11,32,11.10
2018,04,19,11,33,11.10
2018,04,19,11,34,11.10
2018,04,19,11,35,11.10
2018,04,19,11,36,11.20
2018,04,19,11,37,11.20
2018,04,19,11,38,11.20
2018,04,19,11,39,11.20
2018,04,19,11,40,11.20
2018,04,19,11,41,11.30
2018,04,19,11,42,11.30
2018,04,19,11,43,11.20
2018,04,19,11,44,11.20
2018,04,19,11,45,11.10
2018,04,19,11,46,11.10
2018,04,19,11,47,11.20
2018,04,19,11,48,11.20
2018,04,19,11,49,11.20
2018,04,19,11,50,11.30
2018,04,19,11,51,11.30
2018,04,19,11,52,11.30
2018,04,19,11,53,11.40
2018,04,19,11,54,11.40
2018,04,19,11,55,11.40
2018,04,19,11,56,11.50
2018,04,19,11,57,11.60
2018,04,19,11,58,11.60
2018,04,19,11,59,11.60
2018,04,19,12,00,11.70
2018,04,19,12,01,11.70
2018,04,19,12,02,11.70
2018,04,19,12,03,11.80
2018,04,19,12,04,11.80
2018,04,19,12,05,11.80
2018,04,19,12,06,11.80
2018,04,19,12,07,11.90
2018,04,19,12,08,11.90
2018,04,19,12,09,12.00
2018,04,19,12,10,12.00
2018,04,19,12,11,12.10
2018,04,19,12,12,12.10
2018,04,19,12,13,12.10
2018,04,19,12,14,12.10
2018,04,19,12,15,12.10
2018,04,19,12,16,12.10
2018,04,19,12,17,12.10
2018,04,19,12,18,12.10
2018,04,19,12,19,12.10
2018,04,19,12,20,12.10
2018,04,19,12,21,12.10
2018,04,19,12,22,12.10
2018,04,19,12,23,12.10
2018,04,19,12,24,12.20
2018,04,19,12,25,12.20
2018,04,19,12,26,12.20
2018,04,19,12,27,12.20
2018,04,19,12,28,12.20
2018,04,19,12,29,12.30
2018,04,19,12,30,12.30
2018,04,19,12,31,12.20
2018,04,19,12,32,12.20
2018,04,19,12,33,12.10
2018,04,19,12,34,12.00
2018,04,19,12,35,11.90
2018,04,19,12,36,12.00
2018,04,19,12,37,12.00
2018,04,19,12,38,12.00
2018,04,19,12,39,12.00
2018,04,19,12,40,12.00
2018,04,19,12,41,12.00
2018,04,19,12,42,12.10
2018,04,19,12,43,12.10
2018,04,19,12,44,12.10
2018,04,19,12,45,12.10
2018,04,19,12,46,12.10
2018,04,19,12,47,12.10
2018,04,19,12,48,12.10
2018,04,19,12,49,12.20
2018,04,19,12,50,12.20
2018,04,19,12,51,12.20
2018,04,19,12,52,12.20
2018,04,19,12,53,12.20
2018,04,19,12,54,12.20
2018,04,19,12,55,12.20
2018,04,19,12,56,12.10
2018,04,19,12,57,12.00
2018,04,19,12,58,11.80
2018,04,19,12,59,11.80
2018,04,19,13,00,11.90
2018,04,19,13,01,11.90
2018,04,19,13,02,11.90
2018,04,19,13,03,11.90
2018,04,19,13,04,12.00
2018,04,19,13,05,12.00
2018,04,19,13,06,12.20
2018,04,19,13,07,12.20
2018,04,19,13,08,12.30
2018,04,19,13,09,12.40
2018,04,19,13,10,12.50
2018,04,19,13,11,12.60
2018,04,19,13,12,12.70
2018,04,19,13,13,12.70
2018,04,19,13,14,12.80
2018,04,19,13,15,12.80
2018,04,19,13,16,12.80
2018,04,19,13,17,12.80
2018,04,19,13,18,12.70
2018,04,19,13,19,12.70
2018,04,19,13,20,12.70
2018,04,19,13,21,12.70
2018,04,19,13,22,12.70
2018,04,19,13,23,12.70
2018,04,19,13,24,12.70
2018,04,19,13,25,12.80
2018,04,19,13,26,12.80
2018,04,19,13,27,12.90
2018,04,19,13,28,13.00
2018,04,19,13,29,13.00
2018,04,19,13,30,13.10
2018,04,19,13,31,13.20
2018,04,19,13,32,13.20
2018,04,19,13,33,13.20
2018,04,19,13,34,13.10
2018,04,19,13,35,13.10
2018,04,19,13,36,13.10
2018,04,19,13,37,13.10
2018,04,19,13,38,13.20
2018,04,19,13,39,13.30
2018,04,19,13,40,13.40
2018,04,19,13,41,13.50
2018,04,19,13,42,13.50
2018,04,19,13,43,13.40
2018,04,19,13,44,13.40
2018,04,19,13,45,13.40
2018,04,19,13,46,13.40
2018,04,19,13,47,13.40
2018,04,19,13,48,13.40
2018,04,19,13,49,13.50
2018,04,19,13,50,13.60
2018,04,19,13,51,13.60
2018,04,19,13,52,13.70
2018,04,19,13,53,13.60
2018,04,19,13,54,13.60
2018,04,19,13,55,13.50
2018,04,19,13,56,13.50
2018,04,19,13,57,13.40
2018,04,19,13,58,13.50
2018,04,19,13,59,13.50
2018,04,19,14,00,13.40
2018,04,19,14,01,13.40
2018,04,19,14,02,13.40
2018,04,19,14,03,13.40
2018,04,19,14,04,13.40
2018,04,19,14,05,13.40
2018,04,19,14,06,13.40
2018,04,19,14,07,13.40
2018,04,19,14,08,13.40
2018,04,19,14,09,13.40
2018,04,19,14,10,13.30
2018,04,19,14,11,13.30
2018,04,19,14,12,13.30
2018,04,19,14,13,13.30
2018,04,19,14,14,13.30
2018,04,19,14,15,13.30
2018,04,19,14,16,13.20
2018,04,19,14,17,13.30
2018,04,19,14,18,13.20
2018,04,19,14,19,13.20
2018,04,19,14,20,13.20
2018,04,19,14,21,13.20
2018,04,19,14,22,13.20
2018,04,19,14,23,13.30
2018,04,19,14,24,13.40
2018,04,19,14,25,13.40
2018,04,19,14,26,13.40
2018,04,19,14,27,13.40
2018,04,19,14,28,13.30
2018,04,19,14,29,13.20
2018,04,19,14,30,13.20
2018,04,19,14,31,13.20
2018,04,19,14,32,13.30
2018,04,19,14,33,13.40
2018,04,19,14,34,13.50
2018,04,19,14,35,13.60
2018,04,19,14,36,13.60
2018,04,19,14,37,13.60
2018,04,19,14,38,13.60
2018,04,19,14,39,13.60
2018,04,19,14,40,13.70
2018,04,19,14,41,13.60
2018,04,19,14,42,13.50
2018,04,19,14,43,13.50
2018,04,19,14,44,13.40
2018,04,19,14,45,13.40
2018,04,19,14,46,13.30
2018,04,19,14,47,13.40
2018,04,19,14,48,13.30
2018,04,19,14,49,13.30
2018,04,19,14,50,13.40
2018,04,19,14,51,13.40
2018,04,19,14,52,13.40
2018,04,19,14,53,13.40
2018,04,19,14,54,13.40
2018,04,19,14,55,13.40
2018,04,19,14,56,13.40
2018,04,19,14,57,13.40
2018,04,19,14,58,13.30
2018,04,19,14,59,13.30
2018,04,19,15,00,13.20
2018,04,19,15,01,13.10
2018,04,19,15,02,13.00
2018,04,19,15,03,13.00
2018,04,19,15,04,12.90
2018,04,19,15,05,12.90
2018,04,19,15,06,12.90
2018,04,19,15,07,12.90
2018,04,19,15,08,12.90
2018,04,19,15,09,12.90
2018,04,19,15,10,12.80
2018,04,19,15,11,12.80
2018,04,19,15,12,12.80
2018,04,19,15,13,12.80
2018,04,19,15,14,12.80
2018,04,19,15,15,12.80
2018,04,19,15,16,12.80
2018,04,19,15,17,12.80
2018,04,19,15,18,12.80
2018,04,19,15,19,12.80
2018,04,19,15,20,12.80
2018,04,19,15,21,12.80
2018,04,19,15,22,12.70
2018,04,19,15,23,12.70
2018,04,19,15,24,12.60
2018,04,19,15,25,12.60
2018,04,19,15,26,12.70
2018,04,19,15,27,12.70
2018,04,19,15,28,12.80
2018,04,19,15,29,12.70
2018,04,19,15,30,12.70
2018,04,19,15,31,12.70
2018,04,19,15,32,12.70
2018,04,19,15,33,12.70
2018,04,19,15,34,12.70
2018,04,19,15,35,12.80
2018,04,19,15,36,12.80
2018,04,19,15,37,12.80
2018,04,19,15,38,12.80
2018,04,19,15,39,12.80
2018,04,19,15,40,12.80
2018,04,19,15,41,12.70
2018,04,19,15,42,12.70
2018,04,19,15,43,12.70
2018,04,19,15,44,12.80
2018,04,19,15,45,12.90
2018,04,19,15,46,12.90
2018,04,19,15,47,12.90
2018,04,19,15,48,12.80
2018,04,19,15,49,12.80
2018,04,19,15,50,12.80
2018,04,19,15,51,12.80
2018,04,19,15,52,12.80
2018,04,19,15,53,12.80
2018,04,19,15,54,12.70
2018,04,19,15,55,12.70
2018,04,19,15,56,12.70
2018,04,19,15,57,12.60
2018,04,19,15,58,12.50
2018,04,19,15,59,12.40
2018,04,19,16,00,12.30
2018,04,19,16,01,12.30
2018,04,19,16,02,12.30
2018,04,19,16,03,12.30
2018,04,19,16,04,12.30
2018,04,19,16,05,12.30
2018,04,19,16,06,12.30
2018,04,19,16,07,12.30
2018,04,19,16,08,12.30
2018,04,19,16,09,12.30
2018,04,19,16,10,12.30
2018,04,19,16,11,12.30
2018,04,19,16,12,12.30
2018,04,19,16,13,12.30
2018,04,19,16,14,12.20
2018,04,19,16,15,12.20
2018,04,19,16,16,12.20
2018,04,19,16,17,12.20
2018,04,19,16,18,12.20
2018,04,19,16,19,12.20
2018,04,19,16,20,12.20
2018,04,19,16,21,12.20
2018,04,19,16,22,12.20
2018,04,19,16,23,12.20
2018,04,19,16,24,12.20
2018,04,19,16,25,12.20
2018,04,19,16,26,12.20
2018,04,19,16,27,12.20
2018,04,19,16,28,12.20
2018,04,19,16,29,12.20
2018,04,19,16,30,12.20
2018,04,19,16,31,12.20
2018,04,19,16,32,12.20
2018,04,19,16,33,12.10
2018,04,19,16,34,12.10
2018,04,19,16,35,12.00
2018,04,19,16,36,12.00
2018,04,19,16,37,11.90
2018,04,19,16,38,11.90
2018,04,19,16,39,11.90
2018,04,19,16,40,11.90
2018,04,19,16,41,11.80
2018,04,19,16,42,11.80
2018,04,19,16,43,11.80
2018,04,19,16,44,11.90
2018,04,19,16,45,11.90
2018,04,19,16,46,11.90
2018,04,19,16,47,11.90
2018,04,19,16,48,11.80
2018,04,19,16,49,11.80
2018,04,19,16,50,11.80
2018,04,19,16,51,11.80
2018,04,19,16,52,11.80
2018,04,19,16,53,11.80
2018,04,19,16,54,11.80
2018,04,19,16,55,11.80
2018,04,19,16,56,11.80
2018,04,19,16,57,11.70
2018,04,19,16,58,11.70
2018,04,19,16,59,11.70
2018,04,19,17,00,11.70
2018,04,19,17,01,11.70
2018,04,19,17,02,11.70
2018,04,19,17,03,11.70
2018,04,19,17,04,11.60
2018,04,19,17,05,11.60
2018,04,19,17,06,11.60
2018,04,19,17,07,11.60
2018,04,19,17,08,11.60
2018,04,19,17,09,11.60
2018,04,19,17,10,11.70
2018,04,19,17,11,11.70
2018,04,19,17,12,11.70
2018,04,19,17,13,11.70
2018,04,19,17,14,11.70
2018,04,19,17,15,11.80
2018,04,19,17,16,11.80
2018,04,19,17,17,11.80
2018,04,19,17,18,11.80
2018,04,19,17,19,11.90
2018,04,19,17,20,11.90
2018,04,19,17,21,11.90
2018,04,19,17,22,11.90
2018,04,19,17,23,11.90
2018,04,19,17,24,12.00
2018,04,19,17,25,12.00
2018,04,19,17,26,12.00
2018,04,19,17,27,12.00
2018,04,19,17,28,12.00
2018,04,19,17,29,12.00
2018,04,19,17,30,12.00
2018,04,19,17,31,12.00
2018,04,19,17,32,12.00
2018,04,19,17,33,12.10
2018,04,19,17,34,12.10
2018,04,19,17,35,12.10
2018,04,19,17,36,12.10
2018,04,19,17,37,12.20
2018,04,19,17,38,12.20
2018,04,19,17,39,12.20
2018,04,19,17,40,12.20
2018,04,19,17,41,12.20
2018,04,19,17,42,12.30
2018,04,19,17,43,12.30
2018,04,19,17,44,12.30
2018,04,19,17,45,12.30
2018,04,19,17,46,12.30
2018,04,19,17,47,12.30